CZ-6A DEB, 54949

Orbit data source: Space-Track

CZ-6A DEB, 54949 is space debris in SSO originally from a launch on Fri, 11 Nov 2022 UTC launched from the Taiyaun Space Center, China (TSC). Debris objects in space refer to the collection of defunct objects orbiting the Earth. Examples of debris include non-operational satellites, rocket bodies, and fragments generated from explosions, collisions, or faulty payload assembly.

Loading next visibility...
Identifier
54949, 2022-151SN
Orbit
SSO
Country
Flag of CNCN / PRC
Related business
Manufacturer
SAST
Mission
Spacecraft
Bus & Motor
Unknown
Mass
Unknown
Launch date (UTC)
2022-11-11 (4 years ago)
Launch vehicle
Unknown
Launch site
Taiyaun Space Center, China (TSC)
Object type
Payload
Rocket body
Debris
Shape & HBR
Unknown shape, 0.1 m
Radar Cross Section
Small (<0.1 m²)

Expand to show TLE details & history
Last TLE update: 18 hours ago

TLE from 18 hours ago
0 CZ-6A DEB
1 54949U 22151SN  26193.66159182  .00001645  00000-0  40812-3 0  9995
2 54949  98.6083 238.5302 0089239 263.7633  95.3390 14.50935392192777
Epoch: 2026-07-12T15:52Z
TLE epoch observation values (Epoch: 2026-07-12T15:52:41.533Z)
Latitude
0.00002°
Longitude
69.79989°
Altitude
732.012 km
Speed
7.486 km/s
True Right ascension
15h 54m 07s
True Declination
0° 00' 00"
Sunlit
Object was in full shadow at epoch
Visualization orbit readout
Latitude
Unknown
Longitude
Unknown
Altitude
Unknown
Speed
Unknown
Apparent Right ascension
Unknown
Apparent Declination
Unknown
Sunlit
N/A
Visualization observer readout
Local Sidereal Time
21:49:41
Azimuth
Unknown
Elevation
Unknown
Doppler factor
Unknown
Orbital elements
Apogee altitude
783.048 km
Perigee altitude
656.367 km
Semi-major axis
7,097.844 km
Eccentricity
0.00892
Inclination
98.6083°
RAAN
238.5302°
Arg. of periapsis
263.7633°
True anomaly
96.35606°
Mean anomaly
95.339°
Eccentric anomaly
95.84764°
Mean motion
3.62956 °/min
Orbital period
99.19 mins
BSTAR
0.00040812
Loading maneuver chart data...
Computing Atmospheric mass density...
Loading historical data...
Loading historical data...
Loading historical data...
Loading historical data...
Loading historical data...
Loading historical data...
Loading historical data...

Documentation

Showing up to 5 results
|